Flag for Germany Weather past 2 weeks in Leutkirch im Allgäu, Baden-Württemberg, Germany

Now
52 °F

Rain. Low clouds.


Feels Like: 52 °F
Forecast: 45 / 61 °F
Wind: 1 mph from Northwest

Location: Kempten

Current Time: May 6, 2015 at 8:24:59 AM

Latest Report: May 6, 2015 at 8:00 AM


Visibility: 1 mi

Pressure: 29.99 "Hg

Humidity: 97%

Dew point: 51 °F

Location of Leutkirch im AllgäuLocation

Historic Weather in Leutkirch im Allgäu — Graph

°F

Leutkirch im Allgäu temperature yesterday

Maximum temperature yesterday: 76 °F (at 1:00 PM)
Minimum temperature yesterday: 54 °F (at 3:00 AM)
Average temperature yesterday: 64 °F

Past Weeks' High & Low Weather Summary

 TemperatureHumidityPressure
High76 °F (May 5, 1:00 PM)99% (Apr 29, 6:00 AM)30.44 "Hg (Apr 29, 6:00 AM)
Low29 °F (Apr 24, 7:00 AM)18% (Apr 22, 4:00 PM)29.41 "Hg (Apr 27, 6:00 PM)
Average52 °F73%29.92 "Hg
* Reported Apr 21 7:00 AM — May 6 7:00 AM, Leutkirch im Allgäu, Weather by CustomWeather, © 2015

Note: Actual official high and low records may vary slightly from our data, if they occured in-between our weather recording intervals... More about our weather records

Advertising

Leutkirch im Allgäu weather history for previous 24 hours

 ConditionsComfort  
Time TempWeatherWind HumidityBarometerVisibility
7:00 AM
Wed, May 6
52 °FRain. Low clouds.1 mph97%29.97 "Hg2 mi
6:00 AM52 °FDrizzle. Overcast.1 mph96%29.95 "Hg6 mi
5:00 AM53 °FLight rain. Overcast.2 mph91%29.96 "Hg7 mi
4:00 AM54 °FLight rain. Overcast.1 mph88%29.95 "Hg17 mi
3:00 AM55 °FOvercast.1 mph82%29.95 "Hg17 mi
2:00 AM55 °FOvercast.1 mph78%29.94 "Hg43 mi
1:00 AM56 °FOvercast.1 mph79%29.95 "Hg37 mi
12:00 AM56 °FOvercast.2 mph80%29.94 "Hg34 mi
11:00 PM
Tue, May 5
56 °FOvercast.2 mph82%29.95 "Hg28 mi
10:00 PM57 °FLight rain. Overcast.2 mph86%29.92 "Hg19 mi
9:00 PM58 °FOvercast.3 mph87%29.90 "Hg17 mi
8:00 PM65 °FOvercast.2 mph56%29.82 "Hg28 mi
7:00 PM67 °FOvercast.2 mph55%29.78 "Hg25 mi
6:00 PM69 °FOvercast.3 mph52%29.76 "Hg25 mi
5:00 PM71 °FPartly sunny.3 mph50%29.75 "Hg31 mi
4:00 PM71 °FPartly sunny.5 mph48%29.72 "Hg28 mi
3:00 PM72 °FPartly sunny.3 mph46%29.72 "Hg25 mi
2:00 PM74 °FPartly sunny.3 mph39%29.68 "Hg31 mi
1:00 PM76 °FPassing clouds.5 mph38%29.66 "Hg22 mi
12:00 PM73 °FOvercast.2 mph53%29.68 "Hg28 mi
10:00 AM68 °FOvercast.2 mph59%29.65 "Hg34 mi
9:00 AM65 °FOvercast.2 mph63%29.65 "Hg34 mi
8:00 AM65 °FOvercast.3 mph55%29.65 "Hg25 mi
Weather by CustomWeather, © 2015

See weather overviewHow to use our weather pages